Temperature
4 4 4 3 3 3 2 2 1 1 1 2 2 3 2 2 2 2 2 2 2 2 3 2 3 2 2 3 3 3 3 3 3 4 4 4 4 5
4 3 3 3 3 2 2 2 1 0 0 1 1 2 2 2 2 2 2 2 2 2 2 2 2 2 2 2 2 3 3 3 3 3 4 4 4 4
3 3 3 2 2 2 1 1 1 0 -0 1 1 1 1 1 1 1 1 1 1 2 2 2 2 2 2 2 2 2 2 3 3 3 3 3 4 4
3 3 2 2 2 1 1 1 0 0 -0 -0 1 1 1 1 1 1 1 1 1 1 1 1 1 2 2 2 2 2 2 2 3 3 3 3 3 4
2 2 2 1 1 1 1 0 0 -0 -0 -1 -0 0 0 0 -0 0 0 0 0 0 1 1 1 1 1 1 2 2 2 2 2 3 3 3 3 3
2 1 1 1 0 0 0 -0 -0 -1 -1 -1 -1 -1 -1 -1 -1 -1 -0 -0 0 0 0 1 1 1 1 1 1 1 2 2 2 3 3 3 3 3
1 1 1 0 0 -0 -0 -1 -1 -1 -1 -1 -1 -1 -1 -1 -2 -2 -2 -1 -1 -0 -0 0 0 1 1 1 1 1 1 2 2 2 3 3 3 3
1 1 0 0 -0 -0 -1 -1 -1 -1 -2 -2 -2 -2 -2 -2 -2 -2 -2 -2 -2 -1 -1 -1 -0 0 0 0 1 1 1 2 2 2 2 2 3 3
0 0 -0 -0 -1 -1 -1 -1 -1 -1 -2 -2 -2 -2 -2 -2 -3 -3 -2 -2 -2 -2 -2 -1 -1 -1 -0 0 0 1 1 1 1 2 2 2 2 2
-0 -0 -1 -1 -1 -1 -1 -1 -1 -1 -1 -2 -2 -2 -2 -2 -3 -3 -2 -2 -2 -2 -2 -2 -1 -1 -0 -0 0 0 1 1 1 1 1 1 2 2
-0 -1 -1 -1 -1 -2 -2 -1 -1 -1 -1 -2 -2 -2 -2 -2 -2 -2 -2 -2 -2 -2 -2 -2 -2 -2 -1 -0 -0 -0 -0 0 0 1 1 1 1 1
-1 -1 -1 -2 -2 -2 -2 -2 -2 -2 -2 -2 -2 -2 -2 -2 -2 -2 -2 -3 -3 -3 -2 -2 -2 -2 -2 -1 -1 -1 -0 -0 -0 0 0 1 1 1
-2 -2 -2 -2 -2 -2 -2 -2 -2 -2 -2 -2 -2 -2 -2 -2 -2 -2 -2 -3 -3 -3 -2 -2 -2 -2 -2 -2 -2 -1 -1 -1 -0 -0 -0 -0 0 0
-2 -2 -2 -2 -2 -2 -2 -2 -2 -2 -2 -2 -3 -3 -3 -3 -2 -2 -2 -2 -2 -2 -2 -2 -2 -2 -2 -2 -2 -2 -2 -1 -1 -1 -1 -0 -0 -0
-2 -2 -2 -2 -2 -2 -3 -3 -3 -3 -3 -3 -3 -3 -3 -3 -3 -3 -2 -2 -2 -2 -2 -2 -2 -2 -2 -2 -2 -2 -2 -2 -2 -1 -1 -1 -1 -0
-3 -3 -3 -3 -3 -3 -3 -3 -3 -3 -3 -3 -3 -3 -3 -3 -3 -3 -3 -3 -2 -2 -2 -2 -2 -2 -2 -2 -2 -2 -2 -2 -2 -2 -1 -1 -1 -1
-3 -3 -3 -3 -3 -3 -3 -3 -3 -3 -4 -4 -4 -4 -3 -3 -3 -3 -3 -3 -3 -3 -3 -3 -2 -2 -2 -2 -2 -2 -2 -2 -2 -2 -1 -1 -1 -1
-3 -3 -3 -3 -4 -4 -4 -4 -4 -4 -4 -4 -4 -4 -4 -4 -4 -3 -3 -3 -3 -3 -3 -3 -3 -2 -2 -3 -3 -3 -2 -2 -2 -2 -1 -1 -1 -1
-4 -4 -4 -4 -4 -4 -4 -4 -4 -4 -4 -4 -4 -4 -4 -4 -4 -4 -4 -4 -4 -3 -3 -3 -3 -3 -3 -3 -3 -3 -3 -2 -2 -2 -2 -1 -1 -1
-4 -4 -4 -4 -4 -4 -4 -4 -4 -4 -4 -4 -4 -4 -4 -4 -4 -4 -4 -4 -4 -4 -4 -3 -3 -3 -3 -3 -3 -3 -3 -2 -2 -2 -2 -2 -1 -1
-4 -4 -4 -4 -5 -5 -5 -5 -5 -4 -4 -4 -4 -4 -4 -4 -4 -4 -4 -4 -4 -4 -4 -4 -3 -3 -3 -3 -3 -3 -3 -3 -2 -2 -2 -1 -1 -1
-5 -4 -4 -5 -5 -5 -5 -5 -5 -5 -5 -5 -5 -4 -4 -4 -4 -4 -4 -4 -4 -4 -4 -4 -4 -3 -3 -3 -3 -3 -3 -3 -2 -2 -2 -2 -2 -2
-5 -5 -5 -5 -5 -5 -5 -5 -5 -5 -5 -5 -5 -5 -5 -4 -4 -4 -4 -4 -4 -4 -4 -4 -3 -3 -3 -3 -3 -3 -3 -3 -3 -2 -2 -2 -2 -2
Wind_Speed
5 5 5 5 5 5 5 6 7 12 12 10 7 6 8 10 16 16 15 21 24 25 25 24 24 25 26 26 25 25 24 24 24 23 23 23 22 22
4 5 6 5 5 5 5 6 6 9 12 9 9 10 11 13 18 16 16 23 23 23 24 23 24 24 25 25 24 24 24 23 23 23 23 22 22 22
5 6 7 7 6 5 5 6 7 7 12 13 10 10 11 11 13 12 14 13 15 21 22 23 23 24 24 24 23 23 22 22 22 22 22 21 21 20
6 6 8 7 7 6 6 7 7 8 10 15 12 10 10 10 11 11 12 13 13 19 21 22 23 23 22 22 21 20 20 20 20 19 19 19 19 19
6 7 8 7 8 7 7 8 7 8 8 11 13 10 9 9 10 11 11 10 13 15 18 20 21 21 20 20 19 18 17 17 18 17 16 17 18 18
7 7 7 7 8 9 8 8 7 8 8 9 11 10 9 9 8 10 11 9 11 12 14 16 18 19 19 18 16 15 14 15 16 16 15 15 15 14
6 7 7 9 11 10 9 8 8 8 8 9 10 10 10 9 9 9 12 12 10 8 8 10 11 10 11 13 13 12 11 11 11 11 11 12 11 11
7 7 8 9 11 14 14 14 12 10 9 9 9 10 11 10 9 10 11 11 10 5 7 10 8 9 8 7 10 11 10 10 8 6 5 5 5 5
6 7 8 8 11 8 11 14 13 14 14 11 11 11 12 11 11 12 11 11 11 9 9 9 8 8 8 9 10 9 8 7 5 4 3 2 1 0
6 7 8 9 9 10 9 9 9 9 11 9 9 10 11 10 10 11 12 11 10 7 5 7 7 7 8 8 9 8 7 5 5 5 4 3 2 2
6 6 8 8 12 14 10 9 10 9 11 13 14 14 16 17 13 8 8 8 9 7 4 4 5 6 6 6 6 8 8 6 6 5 5 4 4 3
6 6 9 10 13 14 9 8 10 10 9 9 10 11 11 11 12 8 6 7 7 6 3 3 5 5 4 4 4 5 6 6 7 6 6 6 5 3
6 6 6 12 14 15 12 7 10 11 8 7 7 7 7 6 7 6 5 5 6 6 5 4 4 4 3 4 4 5 4 4 5 5 6 6 5 3
6 6 7 13 14 14 10 11 13 11 5 6 6 6 6 6 6 7 7 6 6 6 7 5 3 4 3 4 4 4 4 4 4 4 4 6 6 5
5 9 11 13 12 9 11 13 11 6 5 6 6 6 6 6 6 6 6 6 6 6 5 4 3 2 2 2 3 3 3 4 4 4 4 4 3 2
6 8 11 11 9 9 8 7 6 5 5 5 6 6 6 5 5 5 5 5 5 5 6 6 4 2 1 2 2 3 3 3 3 4 4 4 3 3
6 5 5 5 5 6 5 6 5 5 6 5 5 5 5 5 5 5 5 5 4 4 5 5 5 4 3 2 2 3 3 3 3 3 4 4 4 4
6 4 5 5 5 6 6 6 5 5 5 5 5 5 5 5 5 5 4 4 4 4 4 4 4 4 4 5 6 3 4 3 3 4 3 4 4 4
4 4 4 5 5 5 5 5 5 6 5 5 5 4 4 4 4 5 5 4 4 5 5 4 4 4 4 4 5 6 3 3 3 3 3 3 3 3
4 4 4 5 5 5 5 5 5 5 5 5 4 4 3 3 4 4 4 4 4 4 5 5 4 4 3 2 2 5 7 4 3 3 3 3 3 4
4 4 4 5 5 5 5 5 5 5 5 4 4 4 3 3 3 3 3 5 4 4 4 5 5 6 2 2 3 4 5 8 6 3 2 3 3 4
4 5 5 5 5 5 5 5 5 5 5 4 4 3 3 3 3 3 3 3 3 3 4 4 5 4 4 4 4 4 5 6 8 11 10 6 2 2
4 5 5 5 5 5 5 5 5 4 4 4 3 3 3 3 3 2 3 3 3 3 4 4 4 4 4 3 4 4 5 6 5 7 8 12 12 10
Wind_Direction
271 274 279 279 274 272 270 271 282 297 300 297 299 295 304 304 303 306 301 302 303 300 298 296 295 294 292 288 284 283 282 279 276 273 272 270 271 273
279 281 283 283 281 275 272 271 266 274 287 292 293 299 304 305 307 307 302 304 305 304 302 298 296 295 293 289 284 281 279 276 275 272 269 268 268 272
290 288 288 286 284 284 280 277 274 271 281 292 292 298 299 301 307 306 305 304 305 306 305 302 299 296 294 289 285 282 278 276 274 272 269 267 266 270
292 292 290 293 290 288 284 280 279 274 277 292 299 302 301 304 305 307 311 310 306 308 309 309 305 300 296 290 286 283 281 278 276 271 268 266 266 268
287 287 288 290 291 291 287 283 282 285 280 286 295 300 302 306 308 307 307 307 309 311 312 312 310 308 305 299 292 287 282 278 274 267 266 267 269 269
289 287 286 286 286 289 290 286 287 288 287 288 295 301 304 305 307 311 314 316 314 313 312 312 311 314 311 307 303 297 288 279 273 266 264 265 264 261
302 299 293 294 294 297 298 296 295 292 293 295 298 303 306 313 314 313 311 313 311 308 313 316 316 316 317 312 307 304 302 294 281 275 267 259 257 251
306 307 305 302 304 305 304 304 300 297 298 296 297 299 302 306 309 310 310 311 311 315 320 317 319 321 321 317 314 312 309 306 298 288 292 277 260 246
308 310 313 313 314 307 307 310 306 301 296 292 292 293 297 303 304 305 305 304 300 305 313 312 319 320 325 325 324 323 327 330 336 345 351 350 340 203
305 303 305 307 309 312 309 308 304 301 298 295 288 290 293 295 292 291 294 298 298 298 301 304 314 320 328 330 332 336 341 345 353 358 1 3 17 36
310 309 310 306 312 321 319 313 311 308 310 308 305 304 305 307 307 304 304 306 306 309 308 295 307 317 327 338 347 357 2 10 14 16 16 17 33 49
315 313 316 320 324 327 322 317 316 317 317 318 317 317 315 316 317 311 302 303 303 306 312 316 311 322 326 334 352 353 360 9 14 22 23 23 32 48
317 318 318 326 329 329 329 322 319 323 322 322 321 321 322 323 325 323 315 302 300 294 303 311 311 317 305 314 336 356 3 360 4 14 25 35 43 58
314 315 317 326 329 331 334 332 332 334 331 331 330 330 330 332 334 331 327 319 303 294 299 298 295 303 308 313 323 338 355 1 6 16 23 32 36 48
317 320 325 330 333 334 337 338 339 340 336 334 330 327 325 324 325 328 327 330 335 331 327 319 305 301 304 306 319 328 338 359 13 20 21 27 29 31
327 325 330 334 338 337 339 343 342 333 332 327 323 324 327 333 336 337 340 344 356 358 357 357 359 7 4 344 351 353 346 351 0 6 16 20 19 16
325 326 334 338 345 344 342 339 337 338 338 333 328 328 332 339 342 342 344 350 2 358 358 3 5 18 33 25 31 23 22 25 18 16 31 34 25 17
337 336 335 337 336 335 335 336 337 337 334 332 331 332 336 341 341 343 350 358 358 355 356 352 356 16 29 35 27 28 26 22 16 23 38 46 32 18
348 337 332 330 329 329 328 328 329 329 327 328 328 333 339 343 344 347 351 360 2 0 358 355 0 15 47 36 11 16 27 18 23 32 35 47 39 12
340 330 326 324 324 324 324 324 325 328 330 330 331 337 340 342 348 351 353 357 1 3 4 4 9 11 22 17 1 4 9 17 30 34 29 37 38 28
330 326 323 321 321 320 318 319 321 324 328 332 334 336 336 342 348 348 356 359 1 6 5 357 343 344 339 22 53 29 19 21 31 32 19 43 41 37
320 319 319 318 317 316 316 316 321 326 330 332 335 334 332 337 342 345 354 357 358 1 357 353 352 6 29 59 65 44 28 25 32 38 40 44 57 53
314 314 315 316 315 314 314 315 318 321 324 326 331 330 330 335 342 347 348 352 359 3 6 9 15 28 40 55 65 59 47 37 36 44 42 41 55 63
Height
1472 1470 1467 1465 1463 1461 1459 1456 1452 1443 1434 1432 1431 1429 1426 1423 1419 1415 1410 1406 1402 1398 1394 1390 1387 1384 1381 1379 1377 1376 1375 1374 1374 1374 1374 1375 1375 1376
1467 1465 1463 1460 1458 1456 1454 1451 1448 1444 1434 1427 1426 1423 1420 1417 1413 1409 1404 1400 1395 1391 1387 1382 1379 1376 1372 1370 1368 1367 1366 1365 1365 1365 1366 1367 1367 1369
1463 1460 1458 1456 1453 1450 1448 1445 1442 1439 1432 1423 1421 1418 1414 1410 1406 1402 1398 1393 1388 1384 1379 1375 1371 1368 1364 1361 1359 1358 1356 1356 1356 1357 1357 1358 1360 1361
1458 1455 1453 1450 1447 1445 1442 1439 1436 1433 1429 1420 1414 1412 1408 1405 1400 1396 1392 1387 1382 1378 1373 1368 1364 1360 1356 1353 1350 1349 1347 1347 1347 1348 1349 1351 1352 1353
1453 1450 1448 1445 1442 1440 1437 1434 1431 1428 1424 1418 1411 1407 1403 1399 1395 1390 1386 1381 1377 1372 1367 1362 1358 1353 1349 1345 1342 1341 1340 1340 1340 1341 1342 1344 1345 1346
1449 1446 1443 1441 1438 1435 1432 1429 1425 1422 1418 1413 1407 1402 1398 1395 1391 1385 1379 1376 1371 1367 1362 1358 1353 1348 1343 1339 1336 1334 1334 1333 1334 1335 1336 1337 1338 1339
1444 1442 1439 1437 1434 1431 1428 1424 1421 1417 1413 1409 1404 1399 1394 1391 1387 1382 1377 1371 1366 1363 1357 1353 1348 1343 1338 1335 1332 1331 1330 1329 1329 1329 1330 1331 1332 1333
1440 1437 1435 1432 1429 1426 1424 1420 1417 1414 1409 1405 1400 1396 1391 1388 1384 1379 1375 1369 1362 1360 1355 1349 1346 1340 1336 1332 1330 1328 1327 1326 1325 1326 1326 1327 1328 1328
1436 1433 1430 1428 1425 1422 1418 1415 1412 1409 1406 1402 1397 1392 1388 1384 1380 1376 1372 1367 1362 1358 1354 1347 1343 1339 1335 1332 1329 1327 1326 1324 1324 1324 1324 1324 1324 1325
1433 1430 1427 1424 1421 1417 1413 1410 1407 1404 1401 1397 1393 1389 1385 1381 1378 1374 1370 1365 1359 1356 1353 1347 1342 1338 1334 1331 1328 1327 1326 1324 1324 1323 1323 1323 1323 1324
1430 1427 1424 1420 1417 1414 1410 1405 1401 1398 1396 1392 1389 1385 1381 1378 1375 1371 1366 1362 1356 1352 1350 1347 1342 1338 1333 1330 1329 1327 1326 1325 1324 1323 1322 1322 1322 1323
1426 1424 1421 1417 1414 1411 1407 1402 1397 1393 1390 1387 1384 1380 1377 1374 1371 1368 1364 1360 1356 1351 1348 1346 1342 1339 1334 1331 1329 1328 1326 1325 1324 1323 1323 1322 1323 1323
1423 1420 1417 1414 1411 1408 1404 1400 1396 1391 1387 1384 1380 1377 1373 1370 1368 1365 1362 1359 1355 1351 1348 1346 1342 1339 1337 1333 1330 1329 1327 1326 1324 1324 1324 1324 1324 1324
1420 1417 1414 1411 1408 1405 1401 1397 1394 1390 1386 1382 1378 1375 1372 1368 1365 1362 1360 1357 1354 1350 1347 1345 1342 1340 1337 1334 1332 1330 1329 1328 1326 1325 1325 1325 1325 1325
1418 1415 1412 1409 1405 1402 1398 1395 1391 1388 1384 1381 1377 1374 1371 1368 1365 1361 1358 1355 1352 1349 1347 1345 1343 1341 1339 1336 1334 1332 1330 1329 1328 1327 1326 1326 1327 1327
1415 1412 1409 1406 1403 1400 1396 1393 1390 1387 1383 1380 1377 1374 1371 1367 1364 1361 1357 1354 1351 1348 1347 1345 1343 1342 1339 1338 1336 1334 1332 1331 1330 1329 1329 1329 1329 1329
1413 1410 1407 1404 1401 1398 1395 1392 1389 1386 1382 1380 1377 1373 1370 1367 1364 1361 1358 1355 1352 1350 1347 1346 1344 1343 1341 1339 1337 1336 1334 1333 1333 1332 1332 1331 1331 1331
1411 1408 1405 1402 1399 1396 1393 1390 1388 1385 1382 1379 1377 1374 1371 1368 1365 1362 1360 1357 1354 1352 1350 1348 1346 1343 1342 1341 1341 1339 1337 1336 1336 1336 1335 1334 1334 1334
1409 1406 1404 1401 1399 1396 1393 1390 1388 1385 1382 1380 1377 1374 1372 1369 1366 1363 1361 1359 1356 1354 1352 1350 1349 1346 1343 1342 1344 1343 1341 1339 1339 1338 1338 1338 1337 1337
1407 1405 1403 1400 1398 1395 1393 1390 1387 1385 1382 1380 1377 1375 1372 1370 1367 1365 1363 1361 1358 1356 1354 1353 1351 1350 1347 1346 1345 1345 1345 1343 1342 1341 1341 1341 1340 1341
1406 1403 1401 1399 1397 1394 1392 1390 1387 1384 1382 1380 1377 1375 1373 1371 1369 1367 1364 1362 1360 1358 1356 1355 1354 1353 1351 1350 1348 1348 1348 1347 1346 1345 1344 1344 1343 1343
1404 1402 1400 1398 1396 1393 1391 1389 1387 1384 1382 1380 1377 1375 1374 1372 1370 1368 1366 1364 1362 1361 1359 1358 1357 1356 1354 1352 1351 1351 1350 1350 1350 1349 1348 1347 1347 1346
1403 1400 1398 1396 1394 1392 1390 1388 1386 1384 1382 1380 1378 1376 1374 1372 1371 1369 1368 1366 1365 1363 1362 1360 1359 1358 1357 1356 1355 1354 1354 1353 1353 1352 1352 1352 1351 1351